[[{"header":{"parameterUnit":"m.s-1","parameterCategory":1,"la1":30.2991,"la2":30.254,"lo1":-89.0895,"lo2":-89.0444,"dy":0.0017,"dx":0.0017,"nx":28,"ny":28,"refTime":"2024-04-04T21:00:00:Z","depth":0,"parameterNumber":2,"parameterNumberName":"U-component_of_WINDS"},"data":[0,0,0,0,0,0,0,0,0,0,0,0,0,0,0,0,0,0,0,0,0,0,0,0,0,0,0,0,0,0,0,0,0,0,0,0,0,0,0,0,0,0,0,0,0,0,0,0,0,0,0,0,0,0,0,0,0,0,5.1068,5.1068,0,5.1093,5.1093,5.1094,5.1062,5.1061,5.106,5.1059,5.1084,5.1085,5.1087,0,0,0,0,0,0,0,0,0,0,0,0,0,5.0992,5.0993,5.1068,5.1068,5.1068,5.1093,5.1093,5.1094,5.1062,5.1061,5.106,5.1058,5.1083,5.1085,5.1087,0,0,0,0,0,0,0,0,0,0,0,0,0,5.1022,5.0994,5.1068,5.1056,5.1055,5.1093,5.1093,5.1094,5.1063,5.1061,5.1059,5.1058,5.1082,5.1085,5.1087,5.1138,0,0,5.1095,5.1097,0,0,0,0,0,0,0,0,5.102,5.1025,5.1057,5.1057,5.1056,5.1073,5.1076,5.1109,5.1063,5.106,5.1059,5.1057,5.1081,5.1084,5.1092,5.1139,5.114,5.1096,5.1097,5.1098,5.1099,0,0,0,0,0,0,0,5.1018,5.1023,5.1078,5.1058,5.1057,5.1049,5.1051,5.1082,5.108,5.106,5.1058,5.1061,5.1081,5.109,5.1093,5.1141,5.1096,5.1098,5.1099,5.1101,5.1231,5.1233,0,0,0,0,0,0,5.1018,5.1022,5.1077,5.1079,5.1033,5.1052,5.1054,5.1069,5.1079,5.1079,5.1063,5.106,5.1086,5.109,5.1094,5.1154,5.1098,5.1101,5.1102,5.1229,5.1231,5.1233,0,0,0,0,0,0,5.1016,5.1023,5.1076,5.105,5.1056,5.1055,5.1072,5.107,5.108,5.1082,5.1081,5.1073,5.1085,5.109,5.1127,5.1154,5.1102,5.1104,5.1227,5.123,5.1232,5.1274,0,0,0,0,0,0,5.1014,5.1022,5.1042,5.105,5.1057,5.111,5.1073,5.1072,5.1085,5.1081,5.1091,5.1091,5.1084,5.1124,5.113,5.1157,5.1106,5.1224,5.1228,5.1231,5.127,5.1278,5.1285,0,0,0,0,0,5.1011,5.1052,5.1043,5.105,5.1081,5.1111,5.1115,5.1107,5.1087,5.1106,5.1107,5.109,5.115,5.1128,5.1135,5.1163,5.1222,5.1227,5.1231,5.1267,5.1277,5.1285,0,0,0,0,0,0,5.1046,5.1053,5.1043,5.1088,5.1099,5.1106,5.113,5.1117,5.1135,5.113,5.1119,5.1122,5.1162,5.1166,5.1141,5.1212,5.1183,5.1189,5.1208,5.1217,5.1224,5.1222,5.1108,0,0,0,0,0,5.1059,5.1083,5.1088,5.1127,5.1133,5.1131,5.1143,5.1136,5.1148,5.1152,5.1156,5.1168,5.1189,5.1203,5.1223,5.1271,5.1273,5.1294,5.1301,5.1307,5.1312,5.1338,5.1347,5.1247,5.1247,5.1247,0,0,5.1086,5.1093,5.1108,5.1134,5.1142,5.1167,5.1135,5.1163,5.1181,5.1156,5.1192,5.1196,5.1208,5.1251,5.127,5.1255,5.134,5.1312,5.1317,5.1319,5.1343,5.1353,5.1361,5.125,5.125,5.1249,0,0,5.1148,5.1155,5.1189,5.1198,5.1211,5.1209,5.1217,5.1226,5.1228,5.1264,5.1246,5.1267,5.1304,5.1314,5.1324,5.139,5.1375,5.1397,5.1434,5.1459,5.1467,5.1474,5.1498,5.1506,5.1402,5.1402,5.1402,0,5.1179,5.1216,5.1208,5.1237,5.1249,5.1228,5.1262,5.1271,5.129,5.1299,5.1282,5.1329,5.1335,5.138,5.1397,5.1405,5.1414,5.1395,5.1467,5.1474,5.148,5.1503,5.1511,5.1404,5.1404,5.1404,5.1404,0,5.1255,5.1281,5.1306,5.1326,5.134,5.1372,5.1368,5.1384,5.1376,5.1376,5.1413,5.142,5.1441,5.1451,5.1443,5.1496,5.1486,5.1469,5.1439,5.1492,5.1513,5.1522,5.1408,5.1407,5.1406,5.1406,0,0,5.1338,5.1353,5.1362,5.1371,5.1384,5.1404,5.1435,5.1456,5.147,5.1484,5.1509,5.1541,5.1525,5.1536,5.1529,5.1552,5.1604,5.1531,5.1531,5.1544,5.1662,5.1675,5.1685,5.1594,5.1596,5.1597,5.1661,0,5.14,5.1453,5.1447,5.1498,5.1522,5.1503,5.153,5.1541,5.1542,5.1563,5.1563,5.1587,5.1564,5.157,5.1592,5.1593,5.1627,5.1588,5.1618,5.1619,5.1615,5.1696,5.171,5.177,5.1669,5.1671,5.1672,0,5.1479,5.1497,5.155,5.156,5.157,5.1594,5.1613,5.1633,5.1645,5.1645,5.1657,5.1647,5.1677,5.1647,5.1689,5.1663,5.1675,5.1677,5.168,5.1682,5.1648,5.17,5.1789,5.1798,5.1684,5.1683,5.1682,0,5.1535,5.1572,5.1609,5.1617,5.1629,5.1647,5.1653,5.1663,5.1677,5.1693,5.1702,5.1722,5.1733,5.1748,5.1743,5.1722,5.1786,5.1756,5.1786,5.1786,5.18,5.1799,5.1892,5.1808,5.1808,5.1808,5.1808,0,5.1605,5.1638,5.1634,5.1657,5.1694,5.1686,5.1723,5.1727,5.1736,5.1759,5.1744,5.1766,5.1758,5.1779,5.1776,5.1811,5.1816,5.1816,5.1815,5.1817,5.1817,5.1825,5.182,5.181,5.181,5.1809,5.1809,0,5.1673,5.1672,5.1711,5.172,5.1723,5.175,5.1758,5.1779,5.1779,5.1808,5.1815,5.1815,5.1839,5.1836,5.1863,5.186,5.1904,5.1898,5.19,5.1899,5.1929,5.1927,5.2029,5.2042,5.1951,5.1952,5.1952,0,5.1718,5.1743,5.1756,5.177,5.1778,5.1801,5.1815,5.1808,5.1823,5.1839,5.1859,5.1882,5.19,5.194,5.1942,5.1963,5.1956,5.1991,5.1959,5.1961,5.1957,5.1955,5.1958,5.1997,5.1998,5.1999,5.2,0,5.1797,5.1796,5.1816,5.1837,5.1854,5.1869,5.1884,5.1896,5.1891,5.1908,5.1933,5.1948,5.1976,5.1999,5.2018,5.2024,5.2011,5.201,5.2018,5.2021,5.2021,5.2021,5.1917,5.2007,5.2007,5.2006,5.2006,5.2005,5.1855,5.1877,5.1889,5.1913,5.1923,5.1937,5.1957,5.196,5.1981,5.2004,5.1998,5.2027,5.2038,5.2063,5.2071,5.2093,5.208,5.2092,5.2095,5.2098,5.2102,5.2018,5.2097,5.2097,5.2096,5.2096,5.2096,0,5.1934,5.1941,5.1963,5.1983,5.2002,5.1989,5.2004,5.202,5.2045,5.2058,5.2076,5.2105,5.2127,5.2132,5.2153,5.217,5.2164,5.2176,5.2174,5.2176,5.2112,5.2103,5.218,5.218,5.218,5.218,5.218,5.218,5.1977,5.2014,5.2013,5.2055,5.2061,5.2089,5.2099,5.2112,5.2121,5.2154,5.2173,5.2176,5.2185,5.2207,5.2227,5.2228,5.2236,5.225,5.2248,5.2188,5.218,5.2172,5.2163,5.2252,5.2252,5.231,5.231,5.2311]},{"header":{"parameterUnit":"m.s-1","parameterCategory":1,"la1":30.2991,"la2":30.254,"lo1":-89.0895,"lo2":-89.0444,"dy":0.0017,"dx":0.0017,"nx":28,"ny":28,"refTime":"2024-04-04T21:00:00:Z","depth":0,"parameterNumber":3,"parameterNumberName":"V-component_of_WINDS"},"data":[0,0,0,0,0,0,0,0,0,0,0,0,0,0,0,0,0,0,0,0,0,0,0,0,0,0,0,0,0,0,0,0,0,0,0,0,0,0,0,0,0,0,0,0,0,0,0,0,0,0,0,0,0,0,0,0,0,0,-0.1289,-0.1287,0,-0.1176,-0.1175,-0.1173,-0.1163,-0.1165,-0.1166,-0.1167,-0.1049,-0.1045,-0.1041,0,0,0,0,0,0,0,0,0,0,0,0,0,-0.1497,-0.1493,-0.1289,-0.1287,-0.1286,-0.1176,-0.1174,-0.1173,-0.1163,-0.1165,-0.1166,-0.1167,-0.1051,-0.1045,-0.104,0,0,0,0,0,0,0,0,0,0,0,0,0,-0.1397,-0.1492,-0.1289,-0.1268,-0.1265,-0.1176,-0.1174,-0.1173,-0.1163,-0.1165,-0.1166,-0.1168,-0.1052,-0.1046,-0.104,-0.0964,0,0,-0.102,-0.1017,0,0,0,0,0,0,0,0,-0.1403,-0.139,-0.1272,-0.1269,-0.1266,-0.1186,-0.1205,-0.1102,-0.1162,-0.1201,-0.1167,-0.1169,-0.1093,-0.1083,-0.1058,-0.0958,-0.0953,-0.102,-0.1016,-0.1013,-0.1011,0,0,0,0,0,0,0,-0.141,-0.1394,-0.1244,-0.1271,-0.1267,-0.1264,-0.1252,-0.1185,-0.1138,-0.1198,-0.1197,-0.1184,-0.1091,-0.1064,-0.1055,-0.0951,-0.102,-0.1014,-0.101,-0.1008,-0.0788,-0.0786,0,0,0,0,0,0,-0.1421,-0.14,-0.1248,-0.1241,-0.134,-0.1259,-0.1246,-0.1209,-0.1139,-0.113,-0.1183,-0.1184,-0.1074,-0.1063,-0.1051,-0.096,-0.1013,-0.1007,-0.1003,-0.079,-0.0787,-0.0785,0,0,0,0,0,0,-0.1425,-0.1407,-0.1252,-0.132,-0.13,-0.1254,-0.1213,-0.1206,-0.1179,-0.1127,-0.1119,-0.1164,-0.1075,-0.106,-0.0987,-0.0956,-0.1004,-0.0998,-0.0792,-0.0789,-0.0786,-0.0776,0,0,0,0,0,0,-0.1431,-0.1409,-0.1379,-0.132,-0.1297,-0.1189,-0.1211,-0.1203,-0.1168,-0.1169,-0.1107,-0.1099,-0.1075,-0.0996,-0.098,-0.0948,-0.0993,-0.0795,-0.0791,-0.0787,-0.0779,-0.0773,-0.0768,0,0,0,0,0,-0.1439,-0.1379,-0.1378,-0.1359,-0.1259,-0.1187,-0.1174,-0.115,-0.1166,-0.1136,-0.1104,-0.1101,-0.0962,-0.0989,-0.0971,-0.0936,-0.0796,-0.0792,-0.0787,-0.0781,-0.0774,-0.0768,0,0,0,0,0,0,-0.1435,-0.1371,-0.1368,-0.1288,-0.1244,-0.1186,-0.1147,-0.1142,-0.1091,-0.1094,-0.1065,-0.1051,-0.098,-0.095,-0.0981,-0.0861,-0.0881,-0.0873,-0.0882,-0.0875,-0.087,-0.0878,-0.0988,0,0,0,0,0,-0.1425,-0.1373,-0.132,-0.1254,-0.1232,-0.1194,-0.1162,-0.1147,-0.1099,-0.108,-0.1042,-0.0995,-0.0942,-0.0907,-0.0854,-0.0775,-0.0762,-0.0742,-0.0737,-0.0732,-0.0726,-0.0684,-0.0676,-0.077,-0.077,-0.077,0,0,-0.1403,-0.1362,-0.1331,-0.1253,-0.1216,-0.1164,-0.1178,-0.112,-0.1081,-0.1071,-0.1,-0.0971,-0.0917,-0.0842,-0.0806,-0.0815,-0.0697,-0.0727,-0.0724,-0.0719,-0.0679,-0.067,-0.0662,-0.0767,-0.0768,-0.0768,0,0,-0.1338,-0.13,-0.1243,-0.1207,-0.1153,-0.1128,-0.1115,-0.1059,-0.1039,-0.0968,-0.0961,-0.0914,-0.0821,-0.0784,-0.0753,-0.0678,-0.0674,-0.0661,-0.0633,-0.0593,-0.0585,-0.0579,-0.0554,-0.0545,-0.0654,-0.0654,-0.0654,0,-0.1317,-0.1238,-0.1214,-0.1158,-0.1125,-0.1115,-0.1058,-0.1024,-0.0955,-0.0932,-0.0943,-0.0829,-0.0792,-0.0709,-0.0691,-0.0666,-0.0651,-0.0668,-0.0588,-0.0581,-0.0575,-0.0551,-0.0541,-0.0653,-0.0654,-0.0654,-0.0654,0,-0.1217,-0.1162,-0.1122,-0.1058,-0.102,-0.0963,-0.0932,-0.0897,-0.0886,-0.0861,-0.079,-0.0746,-0.0686,-0.0665,-0.0653,-0.0581,-0.0589,-0.0594,-0.0614,-0.0565,-0.0542,-0.0532,-0.0652,-0.0652,-0.0653,-0.0653,0,0,-0.1143,-0.1069,-0.1055,-0.1027,-0.0968,-0.0925,-0.087,-0.0812,-0.0784,-0.0737,-0.069,-0.0614,-0.062,-0.0585,-0.0569,-0.0534,-0.0481,-0.0545,-0.0543,-0.0536,-0.0401,-0.0398,-0.0388,-0.0478,-0.0476,-0.0475,-0.0406,0,-0.1072,-0.0973,-0.0951,-0.0866,-0.0816,-0.0808,-0.076,-0.0719,-0.0695,-0.0649,-0.0622,-0.057,-0.058,-0.056,-0.0525,-0.0495,-0.0453,-0.0499,-0.0435,-0.0433,-0.045,-0.0375,-0.0371,-0.0308,-0.0397,-0.0395,-0.0394,0,-0.0975,-0.0928,-0.0838,-0.0789,-0.0768,-0.0724,-0.0672,-0.0628,-0.0583,-0.0568,-0.0531,-0.052,-0.0463,-0.0486,-0.0408,-0.044,-0.0412,-0.0394,-0.0391,-0.0384,-0.0411,-0.0368,-0.0287,-0.0279,-0.0379,-0.0381,-0.0382,0,-0.0933,-0.0847,-0.0783,-0.0759,-0.07,-0.067,-0.0644,-0.06,-0.0568,-0.0522,-0.0502,-0.0449,-0.0421,-0.0381,-0.0357,-0.0375,-0.0281,-0.0302,-0.0268,-0.0269,-0.0248,-0.025,-0.0164,-0.023,-0.023,-0.023,-0.023,0,-0.0856,-0.0801,-0.0764,-0.0725,-0.0665,-0.0642,-0.0583,-0.0556,-0.0518,-0.0475,-0.0464,-0.0423,-0.0393,-0.0349,-0.0329,-0.0269,-0.0256,-0.0243,-0.0238,-0.0244,-0.0246,-0.0226,-0.023,-0.0227,-0.0228,-0.0228,-0.0229,0,-0.0798,-0.0771,-0.0701,-0.0651,-0.0638,-0.0596,-0.0554,-0.0516,-0.0493,-0.0438,-0.0423,-0.0387,-0.0334,-0.0306,-0.0239,-0.0227,-0.016,-0.0157,-0.0175,-0.0174,-0.0142,-0.0146,-0.0041,-0.0027,-0.0101,-0.01,-0.01,0,-0.0751,-0.071,-0.0656,-0.0627,-0.0601,-0.0553,-0.0521,-0.0497,-0.0465,-0.0412,-0.0381,-0.0328,-0.0284,-0.0201,-0.0169,-0.0118,-0.0115,-0.0082,-0.0108,-0.0116,-0.0117,-0.012,-0.0117,-0.0078,-0.0077,-0.0076,-0.0076,0,-0.0671,-0.0661,-0.0615,-0.0566,-0.0529,-0.0489,-0.0449,-0.0425,-0.0396,-0.036,-0.0307,-0.0273,-0.0207,-0.0155,-0.0103,-0.0077,-0.0072,-0.0068,-0.0058,-0.0064,-0.0077,-0.0071,-0.0164,-0.0071,-0.0071,-0.0072,-0.0072,-0.0072,-0.0618,-0.0582,-0.0541,-0.0491,-0.0459,-0.0423,-0.0386,-0.036,-0.0315,-0.026,-0.0249,-0.0194,-0.0152,-0.0082,-0.0054,-0.0011,-0.0018,-0.0003,0.0001,0.0004,0.0004,-0.0084,-0.0001,-0.0002,-0.0002,-0.0002,-0.0002,0,-0.054,-0.0513,-0.0468,-0.0414,-0.0376,-0.0376,-0.0333,-0.0301,-0.0253,-0.0214,-0.0173,-0.0113,-0.0064,-0.0029,0.0021,0.0048,0.0052,0.0061,0.0059,0.0064,0.0009,-0.0006,0.0057,0.0057,0.0057,0.0057,0.0057,0.0057,-0.0494,-0.0434,-0.0419,-0.0344,-0.0318,-0.0264,-0.024,-0.0207,-0.0177,-0.0112,-0.0071,-0.0049,-0.0013,0.0039,0.0084,0.0092,0.011,0.0118,0.0127,0.0075,0.0068,0.0062,0.0049,0.0122,0.0122,0.0179,0.0179,0.018]}]]